Weather History for KCEF - January, 2012

Change the Weather History Date:

Sunday, January 22, 2012

  Actual Average Record
Temperature  
Mean Temperature 14 °F -  
Max Temperature 28 °F 28 °F 48 °F (1997)
Min Temperature 0 °F 13 °F -11 °F (2005)
Degree Days  
Heating Degree Days 51    
Moisture  
Dew Point 8 °F    
Average Humidity 75    
Maximum Humidity 88    
Minimum Humidity 51    
Precipitation  
Precipitation 0.00 in - - ()
Sea Level Pressure  
Sea Level Pressure 30.53 in    
Wind  
Wind Speed 5 mph (NNE)    
Max Wind Speed 12 mph    
Max Gust Speed -    
Visibility 10 miles    
Events Snow    
Averages and records for this station are not official NWS values.
T = Trace of Precipitation, MM = Missing Value Source: NWS Daily Summary

Daily Weather History Graph

Daily Weather History Graph

Search for Another Location

Airport or City:

Trip Planner

Search our weather history database for the weather conditions in past years. The results will help you decide how hot, cold, wet, or windy it might be!

Date:

Astronomy

Jan. 22, 2012 Rise Set
Actual Time 7:12 AM EST 4:51 PM EST
Civil Twilight 6:42 AM EST 5:21 PM EST
Nautical Twilight 6:07 AM EST 5:55 PM EST
Astronomical Twilight 5:34 AM EST 6:29 PM EST
Moon 6:27 AM EST (1/22) 4:30 PM EST (1/22)
Length of Visible Light 10h 39m
Length of Day
9h 38m
Waning Crescent, 0% of the Moon is Illuminated
Jan 22
Waning Crescent
Jan 23
New
Jan 30
First Quarter
Feb 7
Full
Feb 14
Last Quarter

Hourly Weather History & Observations

Time (EST) Temp. Windchill Dew Point Humidity Pressure Visibility Wind Dir Wind Speed Gust Speed Precip Events Conditions
12:55 AM 11.5 °F -1.1 °F 5.5 °F 77% 30.39 in 10.0 mi North 9.2 mph - N/A   Clear
1:55 AM 10.0 °F -3.7 °F 4.6 °F 79% 30.41 in 10.0 mi NNE 10.4 mph - N/A   Clear
2:55 AM 10.4 °F -4.1 °F 5.2 °F 79% 30.45 in 10.0 mi NNE 11.5 mph - N/A   Clear
3:55 AM 1.6 °F -11.0 °F -1.1 °F 88% 30.46 in 10.0 mi NE 6.9 mph - N/A   Clear
4:55 AM 3.0 °F -4.4 °F 0.3 °F 88% 30.48 in 10.0 mi NE 3.5 mph - N/A   Clear
5:55 AM -0.2 °F -10.1 °F -4.0 °F 84% 30.49 in 10.0 mi ENE 4.6 mph - N/A   Clear
6:55 AM 0.1 °F - -3.6 °F 84% 30.53 in 10.0 mi Calm Calm - N/A   Clear
7:55 AM 1.6 °F - -2.0 °F 85% 30.55 in 10.0 mi Calm Calm - N/A   Clear
8:35 AM 3.2 °F -4.2 °F -0.4 °F 85% 30.57 in 10.0 mi NE 3.5 mph - N/A Snow Light Snow
8:55 AM 6.8 °F - 3.2 °F 85% 30.56 in 10.0 mi Calm Calm - N/A   Clear
9:45 AM 10.4 °F - 3.2 °F 73% 30.57 in 10.0 mi Calm Calm - N/A   Clear
9:55 AM 12.2 °F - 5.0 °F 73% 30.58 in 10.0 mi Calm Calm - N/A   Clear
10:55 AM 17.6 °F - 6.8 °F 63% 30.58 in 10.0 mi Calm Calm - N/A   Clear
11:55 AM 21.2 °F 14.9 °F 8.6 °F 58% 30.55 in 10.0 mi NW 4.6 mph - N/A   Clear
12:55 PM 23.0 °F 17.0 °F 8.6 °F 54% 30.54 in 10.0 mi NNW 4.6 mph - N/A   Clear
1:55 PM 24.8 °F 19.1 °F 10.4 °F 54% 30.53 in 10.0 mi West 4.6 mph - N/A   Clear
2:55 PM 28.4 °F - 12.2 °F 51% 30.53 in 10.0 mi Calm Calm - N/A   Clear
3:55 PM 26.1 °F - 13.5 °F 59% 30.53 in 10.0 mi Calm Calm - N/A   Clear
4:55 PM 24.8 °F - 13.6 °F 63% 30.54 in 10.0 mi Calm Calm - N/A   Clear
5:55 PM 17.6 °F - 13.3 °F 83% 30.55 in 10.0 mi Calm Calm - N/A   Clear
6:55 PM 15.3 °F - 11.8 °F 86% 30.55 in 10.0 mi Calm Calm - N/A   Clear
7:45 PM 14.0 °F 5.1 °F 10.4 °F 86% 30.54 in 10.0 mi East 5.8 mph - N/A   Mostly Cloudy
7:55 PM 19.9 °F 13.4 °F 12.4 °F 72% 30.54 in 10.0 mi East 4.6 mph - N/A   Mostly Cloudy
8:14 PM 19.4 °F - 14.0 °F 80% 30.55 in 10.0 mi Calm Calm - N/A   Overcast
8:45 PM 21.2 °F - 15.8 °F 80% 30.55 in 10.0 mi Calm Calm - N/A   Overcast
8:55 PM 21.4 °F - 14.4 °F 74% 30.55 in 10.0 mi Calm Calm - N/A   Overcast
9:55 PM 24.6 °F 20.3 °F 16.0 °F 70% 30.54 in 10.0 mi East 3.5 mph - N/A   Overcast
10:55 PM 27.0 °F - 18.1 °F 69% 30.53 in 10.0 mi Calm Calm - N/A   Overcast
11:55 PM 23.7 °F 19.3 °F 18.7 °F 81% 30.50 in 10.0 mi North 3.5 mph - N/A   Overcast